Overview Statistics Trail Chart Weather Telemetry Raw packets
 

This is the latest recevied weather packets stored in our database for station/object KC2GYU. If no packets are shown the sender has not sent any weather packets the latest 10 day(s).

<< 15 16 17 18 19 20 21 >>
Time Temp. Humidity Pressure Rain* Wind** Luminosity Snow
1778014244 21.11° C 71% 1011.7 hPa 0 mm - 425 W/m² -
1778013941 21.11° C 71% 1011.6 hPa 0 mm - 436 W/m² -
1778013638 21.67° C 71% 1011.5 hPa 0 mm - 451 W/m² -
1778013335 22.22° C 69% 1011.5 hPa 0 mm - 528 W/m² -
1778013032 21.67° C 70% 1011.6 hPa 0 mm - 528 W/m² -
1778012728 21.67° C 70% 1011.6 hPa 0 mm - 528 W/m² -
1778012424 21.67° C 71% 1011.5 hPa 0 mm - 516 W/m² -
1778012121 21.67° C 70% 1011.6 hPa 0 mm - 486 W/m² -
1778011818 21.67° C 71% 1011.5 hPa 0 mm - 519 W/m² -
1778011517 22.22° C 71% 1011.9 hPa 0 mm - 602 W/m² -
1778011213 21.67° C 71% 1011.9 hPa 0 mm - 625 W/m² -
1778010909 22.22° C 70% 1012.1 hPa 0 mm - 634 W/m² -
1778010634 22.22° C 69% 1011.8 hPa 0 mm - 628 W/m² -
1778010299 22.78° C 68% 1012.1 hPa 0 mm - 383 W/m² -
1778009998 22.78° C 69% 1012.1 hPa 0 mm - 577 W/m² -
1778009696 22.78° C 69% 1012.1 hPa 0 mm - 572 W/m² -
1778009393 22.78° C 69% 1011.9 hPa 0 mm - 603 W/m² -
1778009092 22.78° C 70% 1012.1 hPa 0 mm - 619 W/m² -
1778008789 22.22° C 71% 1012.3 hPa 0 mm - 621 W/m² -
1778008487 22.22° C 69% 1012.3 hPa 0 mm - 627 W/m² -
1778008184 22.22° C 69% 1012.4 hPa 0 mm - 542 W/m² -
1778007879 22.22° C 69% 1012.4 hPa 0 mm - 636 W/m² -
1778007575 22.78° C 70% 1012.4 hPa 0 mm - 636 W/m² -
1778007272 22.78° C 70% 1012.6 hPa 0 mm - 639 W/m² -
1778006968 22.78° C 70% 1012.7 hPa 0 mm - 639 W/m² -

* Rain latest hour (hover to see other rain measurements)
** Current wind speed in m/s (hover to see current wind gust speed)